sat.trackr.live / text

‹ back to catalog

STARLINK-32422

NORAD 61592 · 2024-187U

PAYLOAD ACTIVE UNKNOWN

§ Identity

Operator
Country
US
Launch date
2024-10-18
Launch site
AFETR
Launch vehicle
Mass (kg)
RCS (m²)

Purposes: comms

External: N2YO · Heavens-Above · Gunter

§ Orbital elements

Epoch: 2026-09-21T06:55:57.618048Z

Period
93.85 min
Inclination
53.1570°
Eccentricity
0.0001318
Mean motion
15.34387097 rev/d
Perigee alt
461.8 km
Apogee alt
463.6 km
Semi-major
6,840.9 km
B*
4.2812e-5
RAAN
217.8194°
Arg perigee
85.5468°
Mean anomaly
274.5685°
Rev number
10,929

§ Raw data

STARLINK-324221 61592U 24187U   26264.28886132  .00001070  00000+0  42812-4 0  99912 61592  53.1570 217.8194 0001318  85.5468 274.5685 15.34387097109292

JSON: /api/v1/satellites/61592 · /tle

For live sub-satellite position, see the globe view (requires WebGL).

§ Visibility from observer

Set your observer location to see the next 7 days of passes ≥ 10°. The values pass through the URL so the page stays shareable.

No JS? Fill the form by hand. The geolocation button needs JavaScript.